Other Public Products
Issued by NWS Charleston, SC

Current Version | Previous Version | Text Only | Print | Product List | Glossary Off
Versions: 1 2 3 4 5 6 7 8 9 10 11 12 13 14 15 16 17 18 19 20 21 22 23 24 25 26 27 28 29 30 31 32 33 34 35 36 37 38 39 40 41 42 43 44 45 46 47 48 49 50

213
FPUS82 KCHS 181412
OPUCHS

TEST...KCHS/KSAV Gateway Observations...TEST
National Weather Service Charleston SC
900 AM EST THU JAN 18 2018

NOTE: "fair" indicates few or no clouds below 12,000 feet with no
significant weather and/or obstructions to visibility.

SCZ050-WAZ558-NCZ071-TXZ119-213-PAZ071-DCZ001-FLZ074-172-MI076-
NYZ176-178-MAZ016-IL014-TNZ027-NJZ106-GAZ044-MD014-181500-

...Gateway Observations for Charleston International...

CITY           SKY/WX    TMP DP  RH WIND       PRES   REMARKS
Chas Airport   FAIR      28  12  51 NW14G22   30.41R WCI  17
Seattle        CLOUDY    44  39  82 S14       29.80F
Charlotte      FAIR      19  10  68 W5        30.35R WCI  12
Dallas DFW     CLOUDY    20  11  68 CALM      30.51S
Dallas Love    CLOUDY    23  12  62 VRB3      30.54S
Philladelphia  FAIR      23   5  46 NW9       30.13S WCI  13
Wash National  FAIR      25   6  44 NW10      30.20F WCI  15
Baltimore      FAIR      23   8  52 W8        30.16S WCI  14
Miami          FAIR      46  33  60 NW13      30.31R
Detroit        MOCLDY    16   9  74 SW14      30.11R WCI   2
Newark         FAIR      22   7  52 NW17      30.06F WCI   8
Laguardia      FAIR      23  10  57 NW17      30.03F WCI   9
J F K          FAIR      23   8  52 NW13      30.05F WCI  11
Boston Logan   FAIR      23  14  68 W5        29.97R WCI  17
Ft. Lauderdale FAIR      45  37  73 N10       30.31R
Chicago O`Hare FAIR      17  10  74 SW15      30.11F WCI   2
Chicago Midway FAIR      18  11  74 SW17      30.14F WCI   3
Houston Bush   MOCLDY    26  19  74 NE7       30.57F WCI  18
Houston Hobby  CLOUDY    29  19  66 NE7       30.56S WCI  22
Nashville      FAIR      12   8  84 SE5       30.53F WCI   4
Atlanta        FAIR      18  10  71 N13       30.41R WCI   5

$$

GAZ044-118-TXZ119-213-NCZ071-DCZ001-MDZ014-506-PAZ021-071-NJZ106-
NYZ176-178-MAZ106-OHZ011-021-055-MIZ076-KYZ091-ILZ014-INZ047-
MNZ060-ONZ431-181500-

...Gateway Observations for Savannah International...

CITY           SKY/WX    TMP DP  RH WIND       PRES   REMARKS
Savannah Arpt  FAIR      28  11  48 NW13      30.44R WCI  17
Atlanta        FAIR      18  10  71 N13       30.41R WCI   5
Charlotte      FAIR      19  10  68 W5        30.35R WCI  12
Dallas DFW     CLOUDY    20  11  68 CALM      30.51S
Houston Bush   MOCLDY    26  19  74 NE7       30.57F WCI  18
Wash National  FAIR      25   6  44 NW10      30.20F WCI  15
Wash Dulles    FAIR      25   5  42 NW12      30.18F WCI  14
Baltimore      FAIR      23   8  52 W8        30.16S WCI  14
Philadelphia   FAIR      23   5  46 NW9       30.13S WCI  13
Newark         FAIR      22   7  52 NW17      30.06F WCI   8
Laguardia      FAIR      23  10  57 NW17      30.03F WCI   9
J F K          FAIR      23   8  52 NW13      30.05F WCI  11
Boston         FAIR      23  14  68 W5        29.97R WCI  17
Pittsburg      FAIR      11   5  77 SW15      30.20R WCI  -5
Akron          FAIR      10   3  73 SW13      30.17S WCI  -5
Cleveland      FAIR      16   6  65 SW14G22   30.20S WCI   2
Cincinnati     FAIR      11   8  88 SW14      30.35R WCI  -5
Columbus       FAIR      11   6  79 S16       30.30S WCI  -6
Detroit        MOCLDY    16   9  74 SW14      30.11R WCI   2
Chicago O`Hare FAIR      17  10  74 SW15      30.11F WCI   2
Minneapolis    FAIR      23  18  81 SW7       29.89F WCI  15
Indianapolis   FAIR      13   6  74 SW17      30.32S WCI  -4
Toronto Canada FLURRIES  18   9  68 SW12G17   30.02S WCI   5

$$




USA.gov is the U.S. government's official web portal to all federal, state and local government web resources and services.